Location: Helsinki
(60.1699°N, 24.9384°E)
Time: 23:06:32
(UTC+02:00)

Vanguard 1 - All Passes

Search period start: 28 October 2020 00:00
Search period end: 07 November 2020 00:00
Orbit: 649 x 3833 km, 34.3° (Epoch: 27 October)

Date Brightness Start Highest point End Pass type
(mag) Time Alt. Az. Time Alt. Az. Time Alt. Az.
28 Oct - 11:36:09 10° S 11:49:11 19° SE 12:01:33 10° ESE daylight
28 Oct - 13:52:42 10° SW 14:10:11 29° SSE 14:24:46 10° ESE daylight
28 Oct - 16:14:47 10° WSW 16:31:25 28° SSW 16:43:55 10° SE daylight
28 Oct - 18:41:10 10° WSW 18:50:55 16° SW 18:58:42 10° S visible
29 Oct - 11:54:19 10° S 12:09:09 22° SSE 12:23:10 10° ESE daylight
29 Oct - 14:12:31 10° SW 14:30:26 30° S 14:45:17 10° ESE daylight
29 Oct - 16:35:24 10° WSW 16:51:32 27° SSW 17:03:46 10° SSE daylight
29 Oct - 19:03:32 10° WSW 19:10:36 13° SW 19:16:37 10° SSW visible
30 Oct - 10:03:17 10° SE 10:09:14 12° SE 10:15:15 10° ESE daylight
30 Oct - 12:13:07 10° SSW 12:29:12 25° SSE 12:44:21 10° ESE daylight
30 Oct - 14:32:34 10° SW 14:50:42 31° S 15:05:39 10° SE daylight
30 Oct - 16:56:14 10° WSW 17:11:33 25° SSW 17:23:23 10° SSE visible
31 Oct - 10:18:34 10° SSE 10:28:53 15° SE 10:39:26 10° ESE daylight
31 Oct - 12:32:22 10° SSW 12:49:20 28° SSE 13:05:15 10° ESE daylight
31 Oct - 14:52:49 10° WSW 15:10:56 31° S 15:25:52 10° SE daylight
31 Oct - 17:17:19 10° WSW 17:31:29 22° SW 17:42:41 10° S visible
01 Nov - 10:35:57 10° S 10:48:39 19° SE 11:01:46 10° ESE daylight
01 Nov - 12:51:56 10° SW 13:09:31 30° SSE 13:25:56 10° ESE daylight
01 Nov - 15:13:14 10° WSW 15:31:08 30° SSW 15:45:55 10° SE daylight
01 Nov - 17:38:44 10° WSW 17:51:19 19° SW 18:01:34 10° S visible
02 Nov - 10:54:16 10° S 11:08:31 22° SE 11:23:23 10° ESE daylight
02 Nov - 13:11:46 10° SW 13:29:44 31° S 13:46:28 10° ESE daylight
02 Nov - 15:33:50 10° WSW 15:51:17 29° SSW 16:05:45 10° SSE daylight
02 Nov - 18:00:41 10° WSW 18:11:02 16° SW 18:19:48 10° SSW visible
03 Nov - 09:04:17 10° SE 09:08:59 11° SE 09:13:51 10° ESE daylight
03 Nov - 11:13:10 10° SSW 11:28:29 25° SSE 11:44:34 10° ESE daylight
03 Nov - 13:31:50 10° SW 13:49:58 32° S 14:06:51 10° SE daylight
03 Nov - 15:54:38 10° WSW 16:11:21 27° SSW 16:25:22 10° SSE daylight
03 Nov - 18:23:52 10° WSW 18:30:36 12° SW 18:36:41 10° SSW visible
04 Nov - 09:19:21 10° SSE 09:28:31 15° SE 09:38:29 10° ESE daylight
04 Nov - 11:32:28 10° SSW 11:48:33 28° SSE 12:05:30 10° ESE daylight
04 Nov - 13:52:04 10° WSW 14:10:13 32° S 14:27:03 10° SE daylight
04 Nov - 16:15:38 10° WSW 16:31:19 24° SSW 16:44:39 10° SSE daylight
05 Nov - 09:36:48 10° S 09:48:11 18° SE 10:00:56 10° ESE daylight
05 Nov - 11:52:05 10° SW 12:08:40 30° SSE 12:26:13 10° ESE daylight
05 Nov - 14:12:30 10° WSW 14:30:26 31° S 14:47:06 10° SE daylight
05 Nov - 16:36:57 10° WSW 16:51:12 21° SW 17:03:32 10° S visible
06 Nov - 09:55:12 10° S 10:07:58 22° SE 10:22:36 10° ESE daylight
06 Nov - 12:11:57 10° SW 12:28:51 32° S 12:46:46 10° ESE daylight
06 Nov - 14:33:04 10° WSW 14:50:36 30° SSW 15:06:55 10° SSE daylight
06 Nov - 16:58:44 10° WSW 17:10:57 18° SW 17:21:49 10° S visible
